Date String (YYYY-MM-DD hh:mm:ss) UTC,Instrument flags,Ambient pressure (hPa),Sample flow (lpm),Bypass flow (lpm),Sample temperature (°C),Ambient temperature (°C),ASC tube jacket temperature (°C),LED temperature (°C),Box temperature (°C),Sample RH (%),Span deviation,Mass concentration (μg/m³),Mass concentration (μg/m³),Mass concentration (μg/m³)
DateTimeUTC,F1_M11,P_M11,Q1_M11,Q2_M11,T1_M11,T2_M11,T3_M11,T4_M11,T5_M11,U1_M11,ZSPAN_M11,X0_M11,X2_M11,X1_M11
2022-09-20 00:00:00,,0824.7,5.00,0.00,29.7,26.7,00.0,38.2,31.4,17.6,0000.0,0010.30,0003.48,0002.96
2022-09-20 00:01:00,,0824.6,4.99,0.00,29.6,27.0,00.0,38.2,31.3,17.8,0000.0,0010.08,0003.46,0002.95
2022-09-20 00:02:00,,0824.7,4.99,0.00,29.6,27.4,00.0,38.2,31.3,17.9,0000.0,0009.96,0003.46,0002.93
2022-09-20 00:03:00,,0824.7,5.01,0.00,29.6,27.7,00.0,38.2,31.4,17.5,0000.0,0009.23,0003.45,0002.91
2022-09-20 00:04:00,,0824.8,4.99,0.00,29.6,27.9,00.0,38.2,31.4,17.2,0000.0,0008.98,0003.43,0002.90
2022-09-20 00:05:00,,0824.6,5.01,0.00,29.6,28.1,00.0,38.2,31.5,17.2,0000.0,0009.23,0003.44,0002.91
2022-09-20 00:06:00,,0824.7,4.99,0.00,29.7,28.4,00.0,38.3,31.6,17.3,0000.0,0010.23,0003.48,0002.92
2022-09-20 00:07:00,,0824.7,5.00,0.00,29.7,28.5,00.0,38.3,31.6,17.2,0000.0,0010.36,0003.46,0002.92
2022-09-20 00:08:00,,0824.7,5.00,0.00,29.8,28.7,00.0,38.3,31.7,17.4,0000.0,0010.07,0003.46,0002.91
2022-09-20 00:09:00,,0824.7,5.01,0.00,29.8,28.3,00.0,38.3,31.7,17.4,0000.0,0009.53,0003.46,0002.91
2022-09-20 00:10:00,,0824.7,5.00,0.00,29.8,26.9,00.0,38.3,31.7,17.6,0000.0,0009.23,0003.47,0002.93
2022-09-20 00:11:00,,0824.8,4.99,0.00,29.7,26.4,00.0,38.3,31.6,17.8,0000.0,0009.07,0003.48,0002.96
2022-09-20 00:12:00,,0824.7,4.99,0.00,29.7,26.7,00.0,38.2,31.5,17.9,0000.0,0009.39,0003.47,0002.99
2022-09-20 00:13:00,,0824.8,5.00,0.00,29.6,27.0,00.0,38.2,31.3,17.8,0000.0,0009.33,0003.47,0003.04
2022-09-20 00:14:00,,0824.8,5.01,0.00,29.6,27.3,00.0,38.2,31.3,18.0,0000.0,0010.06,0003.47,0003.07
2022-09-20 00:15:00,,0824.8,4.99,0.00,29.6,27.6,00.0,38.2,31.4,18.1,0000.0,0010.13,0003.49,0003.10
2022-09-20 00:16:00,,0824.8,5.01,0.00,29.6,27.9,00.0,38.2,31.4,18.2,0000.0,0009.79,0003.49,0003.12
2022-09-20 00:17:00,,0824.9,4.99,0.00,29.6,28.1,00.0,38.2,31.5,18.3,0000.0,0010.05,0003.50,0003.12
2022-09-20 00:18:00,,0824.9,5.01,0.00,29.7,28.3,00.0,38.3,31.6,18.3,0000.0,0009.92,0003.52,0003.13
2022-09-20 00:19:00,,0824.9,5.00,0.00,29.7,28.5,00.0,38.3,31.6,18.3,0000.0,0010.26,0003.52,0003.13
2022-09-20 00:20:00,,0824.9,5.00,0.00,29.8,28.6,00.0,38.3,31.7,18.4,0000.0,0010.90,0003.55,0003.14
2022-09-20 00:21:00,,0824.9,5.00,0.00,29.8,27.9,00.0,38.3,31.7,18.3,0000.0,0011.16,0003.57,0003.15
2022-09-20 00:22:00,,0824.9,5.00,0.00,29.7,26.6,00.0,38.3,31.6,18.4,0000.0,0012.08,0003.60,0003.15
2022-09-20 00:23:00,,0824.9,5.00,0.00,29.7,26.4,00.0,38.3,31.5,18.4,0000.0,0011.85,0003.64,0003.15
2022-09-20 00:24:00,,0824.9,5.00,0.00,29.6,26.6,00.0,38.2,31.4,18.5,0000.0,0011.83,0003.66,0003.16
2022-09-20 00:25:00,,0824.9,4.99,0.00,29.6,26.9,00.0,38.2,31.3,18.5,0000.0,0011.47,0003.70,0003.16
2022-09-20 00:26:00,,0824.9,5.01,0.00,29.6,27.3,00.0,38.2,31.3,18.3,0000.0,0011.93,0003.70,0003.16
2022-09-20 00:27:00,,0824.9,5.01,0.00,29.6,27.6,00.0,38.2,31.3,18.3,0000.0,0012.26,0003.72,0003.17
2022-09-20 00:28:00,,0824.9,4.99,0.00,29.6,27.9,00.0,38.2,31.4,18.2,0000.0,0011.52,0003.73,0003.17
2022-09-20 00:29:00,,0824.9,4.99,0.00,29.6,28.1,00.0,38.2,31.5,18.0,0000.0,0010.99,0003.74,0003.18
2022-09-20 00:30:00,,0824.9,5.02,0.00,29.7,28.3,00.0,38.3,31.6,18.1,0000.0,0011.36,0003.77,0003.18
2022-09-20 00:31:00,,0824.9,5.00,0.00,29.7,28.5,00.0,38.3,31.6,18.1,0000.0,0012.05,0003.78,0003.18
2022-09-20 00:32:00,,0824.9,4.99,0.00,29.7,28.6,00.0,38.3,31.6,18.1,0000.0,0011.89,0003.78,0003.18
2022-09-20 00:33:00,,0824.9,5.01,0.00,29.8,28.7,00.0,38.3,31.7,18.0,0000.0,0011.14,0003.76,0003.18
2022-09-20 00:34:00,,0824.9,4.99,0.00,29.8,27.6,00.0,38.3,31.7,18.1,0000.0,0011.71,0003.76,0003.18
2022-09-20 00:35:00,,0824.9,5.01,0.00,29.7,26.4,00.0,38.3,31.6,18.2,0000.0,0011.82,0003.74,0003.17
2022-09-20 00:36:00,,0824.9,5.01,0.00,29.7,26.4,00.0,38.3,31.5,18.2,0000.0,0011.39,0003.70,0003.17
2022-09-20 00:37:00,,0824.9,5.00,0.00,29.6,26.7,00.0,38.2,31.3,18.3,0000.0,0011.57,0003.70,0003.16
2022-09-20 00:38:00,,0824.9,4.98,0.00,29.6,27.0,00.0,38.2,31.3,18.3,0000.0,0011.54,0003.69,0003.16
2022-09-20 00:39:00,,0825.0,5.01,0.00,29.6,27.4,00.0,38.2,31.4,18.3,0000.0,0011.61,0003.71,0003.15
2022-09-20 00:40:00,,0825.0,5.00,0.00,29.6,27.7,00.0,38.2,31.4,18.7,0000.0,0011.77,0003.71,0003.16
2022-09-20 00:41:00,,0825.0,5.00,0.00,29.6,28.0,00.0,38.2,31.4,18.8,0000.0,0011.68,0003.69,0003.15
2022-09-20 00:42:00,,0825.0,4.99,0.00,29.6,28.1,00.0,38.3,31.4,18.6,0000.0,0011.87,0003.67,0003.15
2022-09-20 00:43:00,,0825.0,5.02,0.00,29.6,28.3,00.0,38.3,31.5,18.4,0000.0,0012.36,0003.63,0003.13
2022-09-20 00:44:00,,0825.0,4.99,0.00,29.7,28.5,00.0,38.3,31.6,18.2,0000.0,0012.97,0003.64,0003.13
2022-09-20 00:45:00,,0825.1,5.00,0.00,29.7,28.6,00.0,38.3,31.7,18.1,0000.0,0013.23,0003.61,0003.12
2022-09-20 00:46:00,,0825.1,5.00,0.00,29.8,28.0,00.0,38.3,31.7,17.8,0000.0,0014.24,0003.59,0003.12
2022-09-20 00:47:00,,0825.1,5.00,0.00,29.7,26.6,00.0,38.3,31.6,17.8,0000.0,0014.32,0003.62,0003.12
2022-09-20 00:48:00,,0825.0,5.00,0.00,29.7,26.2,00.0,38.3,31.5,17.2,0000.0,0013.89,0003.62,0003.10
2022-09-20 00:49:00,,0825.1,5.01,0.00,29.6,26.5,00.0,38.2,31.4,16.8,0000.0,0013.38,0003.62,0003.10
2022-09-20 00:50:00,,0825.0,5.01,0.00,29.5,26.8,00.0,38.2,31.2,16.8,0000.0,0013.29,0003.57,0003.08
2022-09-20 00:51:00,,0825.0,5.00,0.00,29.5,27.2,00.0,38.2,31.3,16.6,0000.0,0012.86,0003.52,0003.07
2022-09-20 00:52:00,,0825.1,4.98,0.00,29.5,27.5,00.0,38.2,31.3,16.2,0000.0,0012.65,0003.50,0003.05
2022-09-20 00:53:00,,0825.1,5.01,0.00,29.5,27.7,00.0,38.2,31.3,15.9,0000.0,0011.49,0003.48,0003.04
2022-09-20 00:54:00,,0825.0,4.99,0.00,29.6,27.9,00.0,38.2,31.4,16.2,0000.0,0010.57,0003.46,0003.01
2022-09-20 00:55:00,,0825.1,5.01,0.00,29.6,28.2,00.0,38.2,31.5,15.3,0000.0,0009.91,0003.39,0002.97
2022-09-20 00:56:00,,0825.1,4.99,0.00,29.6,28.4,00.0,38.2,31.5,15.2,0000.0,0009.28,0003.38,0002.94
2022-09-20 00:57:00,,0825.1,5.00,0.00,29.7,28.5,00.0,38.3,31.6,14.3,0000.0,0008.20,0003.33,0002.89
2022-09-20 00:58:00,,0825.1,5.00,0.00,29.7,28.6,00.0,38.3,31.6,13.6,0000.0,0007.98,0003.26,0002.81
2022-09-20 00:59:00,,0825.1,4.99,0.00,29.7,27.7,00.0,38.3,31.7,13.5,0000.0,0008.24,0003.20,0002.74
